OneWeb SL0272

operational
NORAD ID: 48990 Int'l Des: 2021-060 Owner: ONEWEBN Country: UK Constellation: oneweb
LEOCIRCULARPOLARONEWEB_TYPE

关于 OneWeb SL0272

正在加载描述...

实时位置

正在加载3D地球...

即将过境

高度历史

Altitude vs Time

uPlot chart will show altitude changes over time

两行轨道根数

1 48990U 21060Z 25261.04788373 .00000137 00000-0 32489-3 0 9995
2 48990 87.8972 283.0310 0001674 86.5114 273.6208 13.16596191203806
Epoch: Sep 18, 2025 • Age: 20 hours

当前状态

高度 1210.6 km
速度 7.25 km/s
星下点 -32.63°S, 32.22°W
发射日期 Jul 1, 2021
运行时间 4.2 years
类型 internet

技术详情

分类 Payload
质量 148.00 kg
干质量 140.00 kg
总质量 148.00 kg
长度 1.30 m
直径 1.00 m
跨度 5.00 m
形状 Trapezoid+2 pan
制造商 ONEWUS
平台类型 ARROW
阶段状态 In Orbit
所有者/国家 ONEWEBN/UK

大型星座

Loading constellations...